Regional Weather Roundup
Issued by NWS

Home | Current Version | Previous Version | Text Only | Print | Product List | Glossary On
Versions: 1 2 3 4 5 6 7 8 9 10 11 12 13 14 15 16 17 18 19 20 21 22 23 24 25 26 27
000
ASUS42 KFFC 190203
RWRGA
WEATHER ROUNDUP FOR GEORGIA
NATIONAL WEATHER SERVICE PEACHTREE CITY GA
1000 PM EDT FRI APR 18 2014

NOTE: "FAIR" INDICATES FEW OR NO CLOUDS BELOW 12,000 FEET WITH NO
SIGNIFICANT WEATHER AND/OR OBSTRUCTIONS TO VISIBILITY.

* = USE WITH CAUTION. THE STATIONS MARKED WITH AN ASTERISK MAY NOT
REPORT WEATHER SUCH AS PRECIPITATION, FOG, OR THUNDER AND ARE NOT
QUALITY CONTROLLED BY NWS.

THE REMARK "TC" DENOTES TEMPERATURE READING IN DEGREES CELSIUS.

GAZ001>058-190300-
NORTH GEORGIA

CITY           SKY/WX    TMP DP  RH WIND       PRES   REMARKS
ATLANTA        LGT RAIN  50  47  89 N18       30.16S
ATHENS         RAIN      48  47  96 N9        30.14S FOG
CHAMBLEE       LGT RAIN  49  46  90 N9        30.17R FOG
PEACHTREE CITY LGT RAIN  50  48  93 N9G17     30.16R
ROME           CLOUDY    52  51  97 SW3       30.18S
WEST ATLANTA   LGT RAIN  50  48  93 NE6       30.17S
GAINESVILLE    RAIN      49  47  93 NE8       30.19R FOG
CARTERSVILLE   LGT RAIN  50  48  93 VRB3      30.20S


CITY           SKY/WX    TMP DP  RH WIND       PRES   REMARKS
DALTON*        CLOUDY    54  50  87 CALM      30.17S
MARIETTA       LGT RAIN  50  49  98 VRB3      30.18R
KENNESAW*      RAIN      48  46  93 E3        30.20S FOG
$$

GAZ059>098-102>109-190300-
CENTRAL GEORGIA

CITY           SKY/WX    TMP DP  RH WIND       PRES   REMARKS
AUGUSTA-BUSH   LGT RAIN  53  49  86 NE18      30.07F FOG
AUGUSTA-DANIEL RAIN      52  50  93 NE20G31   30.08F FOG
COLUMBUS       LGT RAIN  53  50  89 NE13G24   30.05S
MACON          HVY RAIN  52  51  97 N12       30.06R FOG
ROBINS AFB     LGT RAIN  53  51  94 N10G20    30.05R


CITY           SKY/WX    TMP DP  RH WIND       PRES   REMARKS
LAGRANGE*      LGT RAIN  52  50  94 NE12G20   30.11F
SYLVANIA*      RAIN      56  53  91 NE14G20   30.01S
MILLEDGEVILLE* HVY RAIN  52  52 100 N6        30.08F
$$

GAZ099>101-110>166-190300-
SOUTH GEORGIA

CITY           SKY/WX    TMP DP  RH WIND       PRES   REMARKS
SAVANNAH       LGT RAIN  59  57  93 VRB6      29.97S
VALDOSTA       CLOUDY    61  56  83 NE6       29.93F
ALMA           LGT RAIN  56  53  90 VRB5      29.95S
ST SIMONS      LGT RAIN  61  60  97 NE8       29.94S
FT STEWART     RAIN      58  58 100 NW9       29.96R
ALBANY         HVY RAIN  55  54  96 N9        30.01S FOG
HUNTER AFB     LGT RAIN  60  59  98 NE12G21   29.95S
MOODY AFB      CLOUDY    57  57 100 NE10      29.93F
BRUNSWICK      CLOUDY    61  59  94 NE5       29.95S


CITY           SKY/WX    TMP DP  RH WIND       PRES   REMARKS
BAINBRIDGE*    CLOUDY    59  57  94 N12G20    29.97S
MOULTRIE*      DRIZZLE   55  55 100 N6        29.97S
VIDALIA*       HVY RAIN  54  54 100 NE12G20   29.98F
DOUGLAS*       HVY RAIN  55  55 100 E8        29.97S
$$



USA.gov is the U.S. government's official web portal to all federal, state and local government web resources and services.